Year,Month,Day,Hour,Minute,Value (Times are PST for temperature in C)
2012,10,16,00,00,12.80
2012,10,16,00,01,12.70
2012,10,16,00,02,12.70
2012,10,16,00,03,12.70
2012,10,16,00,04,12.70
2012,10,16,00,05,12.60
2012,10,16,00,06,12.60
2012,10,16,00,07,12.60
2012,10,16,00,08,12.60
2012,10,16,00,09,12.60
2012,10,16,00,10,12.50
2012,10,16,00,11,12.50
2012,10,16,00,12,12.50
2012,10,16,00,13,12.50
2012,10,16,00,14,12.40
2012,10,16,00,15,12.40
2012,10,16,00,16,12.40
2012,10,16,00,17,12.40
2012,10,16,00,18,12.40
2012,10,16,00,19,12.40
2012,10,16,00,20,12.30
2012,10,16,00,21,12.30
2012,10,16,00,22,12.30
2012,10,16,00,23,12.30
2012,10,16,00,24,12.30
2012,10,16,00,25,12.30
2012,10,16,00,26,12.30
2012,10,16,00,27,12.30
2012,10,16,00,28,12.30
2012,10,16,00,29,12.30
2012,10,16,00,30,12.30
2012,10,16,00,31,12.30
2012,10,16,00,32,12.30
2012,10,16,00,33,12.30
2012,10,16,00,34,12.30
2012,10,16,00,35,12.20
2012,10,16,00,36,12.20
2012,10,16,00,37,12.20
2012,10,16,00,38,12.20
2012,10,16,00,39,12.20
2012,10,16,00,40,12.20
2012,10,16,00,41,12.20
2012,10,16,00,42,12.30
2012,10,16,00,43,12.30
2012,10,16,00,44,12.30
2012,10,16,00,45,12.30
2012,10,16,00,46,12.30
2012,10,16,00,47,12.20
2012,10,16,00,48,12.20
2012,10,16,00,49,12.20
2012,10,16,00,50,12.20
2012,10,16,00,51,12.20
2012,10,16,00,52,12.10
2012,10,16,00,53,12.10
2012,10,16,00,54,12.10
2012,10,16,00,55,12.00
2012,10,16,00,56,12.00
2012,10,16,00,57,12.00
2012,10,16,00,58,11.90
2012,10,16,00,59,11.90
2012,10,16,01,00,11.90
2012,10,16,01,01,11.90
2012,10,16,01,02,11.90
2012,10,16,01,03,11.90
2012,10,16,01,04,11.90
2012,10,16,01,05,11.90
2012,10,16,01,06,11.80
2012,10,16,01,07,11.80
2012,10,16,01,08,11.80
2012,10,16,01,09,11.80
2012,10,16,01,10,11.80
2012,10,16,01,11,11.80
2012,10,16,01,12,11.80
2012,10,16,01,13,11.80
2012,10,16,01,14,11.90
2012,10,16,01,15,11.90
2012,10,16,01,16,11.90
2012,10,16,01,17,11.90
2012,10,16,01,18,11.90
2012,10,16,01,19,11.90
2012,10,16,01,20,11.90
2012,10,16,01,21,12.00
2012,10,16,01,22,11.90
2012,10,16,01,23,12.00
2012,10,16,01,24,11.90
2012,10,16,01,25,11.90
2012,10,16,01,26,11.90
2012,10,16,01,27,11.90
2012,10,16,01,28,11.90
2012,10,16,01,29,11.90
2012,10,16,01,30,11.90
2012,10,16,01,31,11.90
2012,10,16,01,32,11.90
2012,10,16,01,33,11.90
2012,10,16,01,34,11.90
2012,10,16,01,35,11.90
2012,10,16,01,36,11.90
2012,10,16,01,37,12.00
2012,10,16,01,38,12.00
2012,10,16,01,39,12.00
2012,10,16,01,40,12.00
2012,10,16,01,41,12.00
2012,10,16,01,42,12.10
2012,10,16,01,43,12.10
2012,10,16,01,44,12.10
2012,10,16,01,45,12.10
2012,10,16,01,46,12.10
2012,10,16,01,47,12.10
2012,10,16,01,48,12.10
2012,10,16,01,49,12.10
2012,10,16,01,50,12.10
2012,10,16,01,51,12.10
2012,10,16,01,52,12.10
2012,10,16,01,53,12.10
2012,10,16,01,54,12.10
2012,10,16,01,55,12.00
2012,10,16,01,56,12.00
2012,10,16,01,57,12.10
2012,10,16,01,58,12.10
2012,10,16,01,59,12.10
2012,10,16,02,00,12.10
2012,10,16,02,01,12.10
2012,10,16,02,02,12.10
2012,10,16,02,03,12.10
2012,10,16,02,04,12.00
2012,10,16,02,05,12.00
2012,10,16,02,06,12.00
2012,10,16,02,07,12.00
2012,10,16,02,08,12.10
2012,10,16,02,09,12.10
2012,10,16,02,10,12.10
2012,10,16,02,11,12.10
2012,10,16,02,12,12.10
2012,10,16,02,13,12.10
2012,10,16,02,14,12.10
2012,10,16,02,15,12.10
2012,10,16,02,16,12.10
2012,10,16,02,17,12.20
2012,10,16,02,18,12.20
2012,10,16,02,19,12.20
2012,10,16,02,20,12.20
2012,10,16,02,21,12.20
2012,10,16,02,22,12.20
2012,10,16,02,23,12.20
2012,10,16,02,24,12.20
2012,10,16,02,25,12.10
2012,10,16,02,26,12.20
2012,10,16,02,27,12.20
2012,10,16,02,28,12.20
2012,10,16,02,29,12.20
2012,10,16,02,30,12.20
2012,10,16,02,31,12.20
2012,10,16,02,32,12.20
2012,10,16,02,33,12.20
2012,10,16,02,34,12.20
2012,10,16,02,35,12.20
2012,10,16,02,36,12.10
2012,10,16,02,37,12.10
2012,10,16,02,38,12.10
2012,10,16,02,39,12.10
2012,10,16,02,40,12.10
2012,10,16,02,41,12.10
2012,10,16,02,42,12.10
2012,10,16,02,43,12.10
2012,10,16,02,44,12.10
2012,10,16,02,45,12.10
2012,10,16,02,46,12.10
2012,10,16,02,47,12.10
2012,10,16,02,48,12.10
2012,10,16,02,49,12.10
2012,10,16,02,50,12.10
2012,10,16,02,51,12.10
2012,10,16,02,52,12.10
2012,10,16,02,53,12.10
2012,10,16,02,54,12.10
2012,10,16,02,55,12.10
2012,10,16,02,56,12.20
2012,10,16,02,57,12.20
2012,10,16,02,58,12.20
2012,10,16,02,59,12.20
2012,10,16,03,00,12.20
2012,10,16,03,01,12.20
2012,10,16,03,02,12.20
2012,10,16,03,03,12.20
2012,10,16,03,04,12.10
2012,10,16,03,05,12.10
2012,10,16,03,06,12.10
2012,10,16,03,07,12.10
2012,10,16,03,08,12.10
2012,10,16,03,09,12.10
2012,10,16,03,10,12.10
2012,10,16,03,11,12.10
2012,10,16,03,12,12.10
2012,10,16,03,13,12.10
2012,10,16,03,14,12.00
2012,10,16,03,15,12.00
2012,10,16,03,16,12.00
2012,10,16,03,17,11.90
2012,10,16,03,18,11.90
2012,10,16,03,19,11.90
2012,10,16,03,20,11.80
2012,10,16,03,21,11.80
2012,10,16,03,22,11.70
2012,10,16,03,23,11.70
2012,10,16,03,24,11.60
2012,10,16,03,25,11.60
2012,10,16,03,26,11.60
2012,10,16,03,27,11.50
2012,10,16,03,28,11.50
2012,10,16,03,29,11.40
2012,10,16,03,30,11.40
2012,10,16,03,31,11.30
2012,10,16,03,32,11.30
2012,10,16,03,33,11.30
2012,10,16,03,34,11.20
2012,10,16,03,35,11.20
2012,10,16,03,36,11.20
2012,10,16,03,37,11.10
2012,10,16,03,38,11.10
2012,10,16,03,39,11.10
2012,10,16,03,40,11.10
2012,10,16,03,41,11.10
2012,10,16,03,42,11.10
2012,10,16,03,43,11.10
2012,10,16,03,44,11.10
2012,10,16,03,45,11.10
2012,10,16,03,46,11.10
2012,10,16,03,47,11.10
2012,10,16,03,48,11.10
2012,10,16,03,49,11.10
2012,10,16,03,50,11.10
2012,10,16,03,51,11.10
2012,10,16,03,52,11.10
2012,10,16,03,53,11.20
2012,10,16,03,54,11.20
2012,10,16,03,55,11.20
2012,10,16,03,56,11.20
2012,10,16,03,57,11.20
2012,10,16,03,58,11.20
2012,10,16,03,59,11.20
2012,10,16,04,00,11.20
2012,10,16,04,01,11.10
2012,10,16,04,02,11.10
2012,10,16,04,03,11.10
2012,10,16,04,04,11.10
2012,10,16,04,05,11.10
2012,10,16,04,06,11.10
2012,10,16,04,07,11.10
2012,10,16,04,08,11.00
2012,10,16,04,09,11.00
2012,10,16,04,10,11.00
2012,10,16,04,11,10.90
2012,10,16,04,12,10.90
2012,10,16,04,13,10.90
2012,10,16,04,14,10.90
2012,10,16,04,15,10.90
2012,10,16,04,16,10.80
2012,10,16,04,17,10.80
2012,10,16,04,18,10.80
2012,10,16,04,19,10.80
2012,10,16,04,20,10.70
2012,10,16,04,21,10.70
2012,10,16,04,22,10.70
2012,10,16,04,23,10.70
2012,10,16,04,24,10.70
2012,10,16,04,25,10.70
2012,10,16,04,26,10.70
2012,10,16,04,27,10.60
2012,10,16,04,28,10.60
2012,10,16,04,29,10.60
2012,10,16,04,30,10.50
2012,10,16,04,31,10.50
2012,10,16,04,32,10.40
2012,10,16,04,33,10.40
2012,10,16,04,34,10.40
2012,10,16,04,35,10.30
2012,10,16,04,36,10.30
2012,10,16,04,37,10.30
2012,10,16,04,38,10.30
2012,10,16,04,39,10.30
2012,10,16,04,40,10.30
2012,10,16,04,41,10.30
2012,10,16,04,42,10.30
2012,10,16,04,43,10.30
2012,10,16,04,44,10.30
2012,10,16,04,45,10.30
2012,10,16,04,46,10.30
2012,10,16,04,47,10.30
2012,10,16,04,48,10.30
2012,10,16,04,49,10.30
2012,10,16,04,50,10.30
2012,10,16,04,51,10.30
2012,10,16,04,52,10.30
2012,10,16,04,53,10.30
2012,10,16,04,54,10.30
2012,10,16,04,55,10.30
2012,10,16,04,56,10.30
2012,10,16,04,57,10.40
2012,10,16,04,58,10.40
2012,10,16,04,59,10.40
2012,10,16,05,00,10.40
2012,10,16,05,01,10.40
2012,10,16,05,02,10.40
2012,10,16,05,03,10.00
2012,10,16,05,04,9.50
2012,10,16,05,05,9.50
2012,10,16,05,06,9.50
2012,10,16,05,07,9.50
2012,10,16,05,08,9.50
2012,10,16,05,09,9.50
2012,10,16,05,10,9.50
2012,10,16,05,11,9.50
2012,10,16,05,12,9.50
2012,10,16,05,13,9.50
2012,10,16,05,14,9.50
2012,10,16,05,15,9.60
2012,10,16,05,16,9.60
2012,10,16,05,17,9.50
2012,10,16,05,18,9.50
2012,10,16,05,19,9.50
2012,10,16,05,20,9.50
2012,10,16,05,21,9.50
2012,10,16,05,22,9.50
2012,10,16,05,23,9.60
2012,10,16,05,24,9.60
2012,10,16,05,25,9.60
2012,10,16,05,26,9.60
2012,10,16,05,27,9.60
2012,10,16,05,28,9.60
2012,10,16,05,29,9.60
2012,10,16,05,30,9.60
2012,10,16,05,31,9.60
2012,10,16,05,32,9.60
2012,10,16,05,33,9.60
2012,10,16,05,34,9.70
2012,10,16,05,35,9.70
2012,10,16,05,36,9.70
2012,10,16,05,37,9.80
2012,10,16,05,38,9.80
2012,10,16,05,39,9.80
2012,10,16,05,40,9.80
2012,10,16,05,41,9.80
2012,10,16,05,42,9.80
2012,10,16,05,43,9.80
2012,10,16,05,44,9.70
2012,10,16,05,45,9.70
2012,10,16,05,46,9.70
2012,10,16,05,47,9.70
2012,10,16,05,48,9.60
2012,10,16,05,49,9.60
2012,10,16,05,50,9.70
2012,10,16,05,51,9.70
2012,10,16,05,52,9.70
2012,10,16,05,53,9.70
2012,10,16,05,54,9.80
2012,10,16,05,55,9.80
2012,10,16,05,56,9.80
2012,10,16,05,57,9.70
2012,10,16,05,58,9.70
2012,10,16,05,59,9.70
2012,10,16,06,00,9.70
2012,10,16,06,01,9.70
2012,10,16,06,02,9.70
2012,10,16,06,03,9.70
2012,10,16,06,04,9.70
2012,10,16,06,05,9.70
2012,10,16,06,06,9.70
2012,10,16,06,07,9.70
2012,10,16,06,08,9.70
2012,10,16,06,09,9.70
2012,10,16,06,10,9.80
2012,10,16,06,11,9.80
2012,10,16,06,12,9.80
2012,10,16,06,13,9.70
2012,10,16,06,14,9.70
2012,10,16,06,15,9.70
2012,10,16,06,16,9.70
2012,10,16,06,17,9.70
2012,10,16,06,18,9.70
2012,10,16,06,19,9.70
2012,10,16,06,20,9.70
2012,10,16,06,21,9.70
2012,10,16,06,22,9.70
2012,10,16,06,23,9.70
2012,10,16,06,24,9.70
2012,10,16,06,25,9.70
2012,10,16,06,26,9.70
2012,10,16,06,27,9.70
2012,10,16,06,28,9.70
2012,10,16,06,29,9.60
2012,10,16,06,30,9.60
2012,10,16,06,31,9.60
2012,10,16,06,32,9.60
2012,10,16,06,33,9.60
2012,10,16,06,34,9.60
2012,10,16,06,35,9.60
2012,10,16,06,36,9.70
2012,10,16,06,37,9.70
2012,10,16,06,38,9.70
2012,10,16,06,39,9.70
2012,10,16,06,40,9.60
2012,10,16,06,41,9.60
2012,10,16,06,42,9.60
2012,10,16,06,43,9.60
2012,10,16,06,44,9.60
2012,10,16,06,45,9.60
2012,10,16,06,46,9.70
2012,10,16,06,47,9.70
2012,10,16,06,48,9.70
2012,10,16,06,49,9.70
2012,10,16,06,50,9.60
2012,10,16,06,51,9.70
2012,10,16,06,52,9.70
2012,10,16,06,53,9.70
2012,10,16,06,54,9.70
2012,10,16,06,55,9.70
2012,10,16,06,56,9.70
2012,10,16,06,57,9.70
2012,10,16,06,58,9.70
2012,10,16,06,59,9.70
2012,10,16,07,00,9.70
2012,10,16,07,01,9.70
2012,10,16,07,02,9.70
2012,10,16,07,03,9.70
2012,10,16,07,04,9.70
2012,10,16,07,05,9.70
2012,10,16,07,06,9.60
2012,10,16,07,07,9.60
2012,10,16,07,08,9.60
2012,10,16,07,09,9.60
2012,10,16,07,10,9.60
2012,10,16,07,11,9.70
2012,10,16,07,12,9.70
2012,10,16,07,13,9.70
2012,10,16,07,14,9.70
2012,10,16,07,15,9.70
2012,10,16,07,16,9.70
2012,10,16,07,17,9.70
2012,10,16,07,18,9.70
2012,10,16,07,19,9.70
2012,10,16,07,20,9.70
2012,10,16,07,21,9.70
2012,10,16,07,22,9.70
2012,10,16,07,23,9.70
2012,10,16,07,24,9.70
2012,10,16,07,25,9.60
2012,10,16,07,26,9.60
2012,10,16,07,27,9.60
2012,10,16,07,28,9.60
2012,10,16,07,29,9.60
2012,10,16,07,30,9.60
2012,10,16,07,31,9.60
2012,10,16,07,32,9.60
2012,10,16,07,33,9.60
2012,10,16,07,34,9.60
2012,10,16,07,35,9.60
2012,10,16,07,36,9.60
2012,10,16,07,37,9.60
2012,10,16,07,38,9.60
2012,10,16,07,39,9.60
2012,10,16,07,40,9.60
2012,10,16,07,41,9.60
2012,10,16,07,42,9.60
2012,10,16,07,43,9.60
2012,10,16,07,44,9.60
2012,10,16,07,45,9.60
2012,10,16,07,46,9.60
2012,10,16,07,47,9.60
2012,10,16,07,48,9.60
2012,10,16,07,49,9.60
2012,10,16,07,50,9.60
2012,10,16,07,51,9.60
2012,10,16,07,52,9.60
2012,10,16,07,53,9.60
2012,10,16,07,54,9.60
2012,10,16,07,55,9.60
2012,10,16,07,56,9.60
2012,10,16,07,57,9.60
2012,10,16,07,58,9.60
2012,10,16,07,59,9.60
2012,10,16,08,00,9.60
2012,10,16,08,01,9.70
2012,10,16,08,02,9.60
2012,10,16,08,03,9.60
2012,10,16,08,04,9.60
2012,10,16,08,05,9.60
2012,10,16,08,06,9.60
2012,10,16,08,07,9.60
2012,10,16,08,08,9.60
2012,10,16,08,09,9.60
2012,10,16,08,10,9.60
2012,10,16,08,11,9.60
2012,10,16,08,12,9.60
2012,10,16,08,13,9.60
2012,10,16,08,14,9.60
2012,10,16,08,15,9.60
2012,10,16,08,16,9.60
2012,10,16,08,17,9.60
2012,10,16,08,18,9.60
2012,10,16,08,19,9.60
2012,10,16,08,20,9.60
2012,10,16,08,21,9.60
2012,10,16,08,22,9.60
2012,10,16,08,23,9.60
2012,10,16,08,24,9.60
2012,10,16,08,25,9.60
2012,10,16,08,26,9.60
2012,10,16,08,27,9.60
2012,10,16,08,28,9.60
2012,10,16,08,29,9.60
2012,10,16,08,30,9.60
2012,10,16,08,31,9.60
2012,10,16,08,32,9.60
2012,10,16,08,33,9.60
2012,10,16,08,34,9.60
2012,10,16,08,35,9.60
2012,10,16,08,36,9.70
2012,10,16,08,37,9.70
2012,10,16,08,38,9.70
2012,10,16,08,39,9.70
2012,10,16,08,40,9.70
2012,10,16,08,41,9.70
2012,10,16,08,42,9.70
2012,10,16,08,43,9.70
2012,10,16,08,44,9.70
2012,10,16,08,45,9.70
2012,10,16,08,46,9.70
2012,10,16,08,47,9.70
2012,10,16,08,48,9.70
2012,10,16,08,49,9.70
2012,10,16,08,50,9.80
2012,10,16,08,51,9.80
2012,10,16,08,52,9.80
2012,10,16,08,53,9.80
2012,10,16,08,54,9.90
2012,10,16,08,55,9.90
2012,10,16,08,56,9.90
2012,10,16,08,57,10.00
2012,10,16,08,58,10.00
2012,10,16,08,59,10.10
2012,10,16,09,00,10.10
2012,10,16,09,01,10.10
2012,10,16,09,02,10.20
2012,10,16,09,03,10.20
2012,10,16,09,04,10.20
2012,10,16,09,05,10.20
2012,10,16,09,06,10.20
2012,10,16,09,07,10.20
2012,10,16,09,08,10.20
2012,10,16,09,09,10.20
2012,10,16,09,10,10.20
2012,10,16,09,11,10.10
2012,10,16,09,12,10.10
2012,10,16,09,13,10.10
2012,10,16,09,14,10.10
2012,10,16,09,15,10.10
2012,10,16,09,16,10.10
2012,10,16,09,17,10.10
2012,10,16,09,18,10.10
2012,10,16,09,19,10.10
2012,10,16,09,20,10.10
2012,10,16,09,21,10.10
2012,10,16,09,22,10.10
2012,10,16,09,23,10.10
2012,10,16,09,24,10.10
2012,10,16,09,25,10.10
2012,10,16,09,26,10.10
2012,10,16,09,27,10.10
2012,10,16,09,28,10.10
2012,10,16,09,29,10.10
2012,10,16,09,30,10.10
2012,10,16,09,31,10.10
2012,10,16,09,32,10.00
2012,10,16,09,33,10.00
2012,10,16,09,34,10.00
2012,10,16,09,35,10.00
2012,10,16,09,36,9.90
2012,10,16,09,37,9.90
2012,10,16,09,38,9.90
2012,10,16,09,39,9.90
2012,10,16,09,40,9.90
2012,10,16,09,41,9.80
2012,10,16,09,42,9.90
2012,10,16,09,43,9.90
2012,10,16,09,44,9.90
2012,10,16,09,45,9.90
2012,10,16,09,46,10.00
2012,10,16,09,47,10.00
2012,10,16,09,48,10.10
2012,10,16,09,49,10.10
2012,10,16,09,50,10.10
2012,10,16,09,51,10.20
2012,10,16,09,52,10.20
2012,10,16,09,53,10.20
2012,10,16,09,54,10.20
2012,10,16,09,55,10.30
2012,10,16,09,56,10.30
2012,10,16,09,57,10.30
2012,10,16,09,58,10.40
2012,10,16,09,59,10.40
2012,10,16,10,00,10.40
2012,10,16,10,01,10.50
2012,10,16,10,02,10.50
2012,10,16,10,03,10.50
2012,10,16,10,04,10.50
2012,10,16,10,05,10.50
2012,10,16,10,06,10.60
2012,10,16,10,07,10.60
2012,10,16,10,08,10.60
2012,10,16,10,09,10.60
2012,10,16,10,10,10.60
2012,10,16,10,11,10.60
2012,10,16,10,12,10.70
2012,10,16,10,13,10.70
2012,10,16,10,14,10.70
2012,10,16,10,15,10.70
2012,10,16,10,16,10.80
2012,10,16,10,17,10.80
2012,10,16,10,18,10.80
2012,10,16,10,19,10.80
2012,10,16,10,20,10.80
2012,10,16,10,21,10.80
2012,10,16,10,22,10.90
2012,10,16,10,23,10.90
2012,10,16,10,24,10.90
2012,10,16,10,25,10.90
2012,10,16,10,26,10.90
2012,10,16,10,27,10.90
2012,10,16,10,28,10.90
2012,10,16,10,29,10.90
2012,10,16,10,30,11.00
2012,10,16,10,31,11.00
2012,10,16,10,32,11.00
2012,10,16,10,33,11.10
2012,10,16,10,34,11.10
2012,10,16,10,35,11.10
2012,10,16,10,36,11.10
2012,10,16,10,37,11.10
2012,10,16,10,38,11.10
2012,10,16,10,39,11.10
2012,10,16,10,40,11.10
2012,10,16,10,41,11.10
2012,10,16,10,42,11.10
2012,10,16,10,43,11.10
2012,10,16,10,44,11.10
2012,10,16,10,45,11.20
2012,10,16,10,46,11.20
2012,10,16,10,47,11.20
2012,10,16,10,48,11.20
2012,10,16,10,49,11.20
2012,10,16,10,50,11.20
2012,10,16,10,51,11.30
2012,10,16,10,52,11.30
2012,10,16,10,53,11.30
2012,10,16,10,54,11.30
2012,10,16,10,55,11.30
2012,10,16,10,56,11.30
2012,10,16,10,57,11.30
2012,10,16,10,58,11.40
2012,10,16,10,59,11.40
2012,10,16,11,00,11.40
2012,10,16,11,01,11.40
2012,10,16,11,02,11.40
2012,10,16,11,03,11.40
2012,10,16,11,04,11.40
2012,10,16,11,05,11.40
2012,10,16,11,06,11.40
2012,10,16,11,07,11.50
2012,10,16,11,08,11.50
2012,10,16,11,09,11.60
2012,10,16,11,10,11.60
2012,10,16,11,11,11.60
2012,10,16,11,12,11.70
2012,10,16,11,13,11.70
2012,10,16,11,14,11.70
2012,10,16,11,15,11.70
2012,10,16,11,16,11.70
2012,10,16,11,17,11.70
2012,10,16,11,18,11.70
2012,10,16,11,19,11.70
2012,10,16,11,20,11.70
2012,10,16,11,21,11.80
2012,10,16,11,22,11.80
2012,10,16,11,23,11.80
2012,10,16,11,24,11.90
2012,10,16,11,25,11.90
2012,10,16,11,26,11.90
2012,10,16,11,27,11.90
2012,10,16,11,28,11.90
2012,10,16,11,29,11.90
2012,10,16,11,30,11.80
2012,10,16,11,31,11.80
2012,10,16,11,32,11.80
2012,10,16,11,33,11.80
2012,10,16,11,34,11.70
2012,10,16,11,35,11.80
2012,10,16,11,36,11.80
2012,10,16,11,37,11.80
2012,10,16,11,38,11.80
2012,10,16,11,39,11.80
2012,10,16,11,40,11.80
2012,10,16,11,41,11.90
2012,10,16,11,42,11.90
2012,10,16,11,43,12.00
2012,10,16,11,44,12.00
2012,10,16,11,45,12.10
2012,10,16,11,46,12.10
2012,10,16,11,47,12.10
2012,10,16,11,48,12.10
2012,10,16,11,49,12.00
2012,10,16,11,50,12.00
2012,10,16,11,51,12.00
2012,10,16,11,52,11.90
2012,10,16,11,53,11.90
2012,10,16,11,54,11.90
2012,10,16,11,55,11.80
2012,10,16,11,56,11.80
2012,10,16,11,57,11.80
2012,10,16,11,58,11.80
2012,10,16,11,59,11.90
2012,10,16,12,00,12.00
2012,10,16,12,01,12.00
2012,10,16,12,02,12.00
2012,10,16,12,03,12.00
2012,10,16,12,04,11.90
2012,10,16,12,05,11.90
2012,10,16,12,06,11.80
2012,10,16,12,07,11.80
2012,10,16,12,08,11.80
2012,10,16,12,09,11.70
2012,10,16,12,10,11.70
2012,10,16,12,11,11.70
2012,10,16,12,12,11.70
2012,10,16,12,13,11.60
2012,10,16,12,14,11.60
2012,10,16,12,15,11.60
2012,10,16,12,16,11.60
2012,10,16,12,17,11.50
2012,10,16,12,18,11.50
2012,10,16,12,19,11.40
2012,10,16,12,20,11.40
2012,10,16,12,21,11.40
2012,10,16,12,22,11.40
2012,10,16,12,23,11.30
2012,10,16,12,24,11.30
2012,10,16,12,25,11.20
2012,10,16,12,26,11.20
2012,10,16,12,27,11.20
2012,10,16,12,28,11.10
2012,10,16,12,29,11.10
2012,10,16,12,30,11.00
2012,10,16,12,31,10.90
2012,10,16,12,32,10.90
2012,10,16,12,33,10.80
2012,10,16,12,34,10.80
2012,10,16,12,35,10.80
2012,10,16,12,36,10.80
2012,10,16,12,37,10.90
2012,10,16,12,38,10.90
2012,10,16,12,39,10.90
2012,10,16,12,40,11.00
2012,10,16,12,41,11.00
2012,10,16,12,42,11.00
2012,10,16,12,43,11.10
2012,10,16,12,44,11.10
2012,10,16,12,45,11.10
2012,10,16,12,46,11.20
2012,10,16,12,47,11.20
2012,10,16,12,48,11.20
2012,10,16,12,49,11.20
2012,10,16,12,50,11.30
2012,10,16,12,51,11.30
2012,10,16,12,52,11.30
2012,10,16,12,53,11.30
2012,10,16,12,54,11.40
2012,10,16,12,55,11.30
2012,10,16,12,56,11.30
2012,10,16,12,57,11.30
2012,10,16,12,58,11.30
2012,10,16,12,59,11.30
2012,10,16,13,00,11.30
2012,10,16,13,01,11.30
2012,10,16,13,02,11.30
2012,10,16,13,03,11.30
2012,10,16,13,04,11.20
2012,10,16,13,05,11.10
2012,10,16,13,06,11.00
2012,10,16,13,07,11.00
2012,10,16,13,08,10.90
2012,10,16,13,09,10.90
2012,10,16,13,10,10.90
2012,10,16,13,11,10.90
2012,10,16,13,12,11.00
2012,10,16,13,13,11.00
2012,10,16,13,14,11.00
2012,10,16,13,15,10.90
2012,10,16,13,16,10.90
2012,10,16,13,17,10.90
2012,10,16,13,18,10.90
2012,10,16,13,19,10.90
2012,10,16,13,20,11.00
2012,10,16,13,21,11.10
2012,10,16,13,22,11.20
2012,10,16,13,23,11.20
2012,10,16,13,24,11.30
2012,10,16,13,25,11.40
2012,10,16,13,26,11.40
2012,10,16,13,27,11.50
2012,10,16,13,28,11.60
2012,10,16,13,29,11.70
2012,10,16,13,30,11.70
2012,10,16,13,31,11.80
2012,10,16,13,32,11.90
2012,10,16,13,33,11.90
2012,10,16,13,34,11.90
2012,10,16,13,35,11.90
2012,10,16,13,36,12.00
2012,10,16,13,37,12.10
2012,10,16,13,38,12.10
2012,10,16,13,39,12.20
2012,10,16,13,40,12.20
2012,10,16,13,41,12.20
2012,10,16,13,42,12.20
2012,10,16,13,43,12.20
2012,10,16,13,44,12.20
2012,10,16,13,45,12.20
2012,10,16,13,46,12.20
2012,10,16,13,47,12.20
2012,10,16,13,48,12.20
2012,10,16,13,49,12.20
2012,10,16,13,50,12.30
2012,10,16,13,51,12.30
2012,10,16,13,52,12.20
2012,10,16,13,53,12.20
2012,10,16,13,54,12.20
2012,10,16,13,55,12.20
2012,10,16,13,56,12.20
2012,10,16,13,57,12.20
2012,10,16,13,58,12.20
2012,10,16,13,59,12.20
2012,10,16,14,00,12.20
2012,10,16,14,01,12.30
2012,10,16,14,02,12.30
2012,10,16,14,03,12.30
2012,10,16,14,04,12.30
2012,10,16,14,05,12.30
2012,10,16,14,06,12.30
2012,10,16,14,07,12.30
2012,10,16,14,08,12.40
2012,10,16,14,09,12.40
2012,10,16,14,10,12.50
2012,10,16,14,11,12.60
2012,10,16,14,12,12.60
2012,10,16,14,13,12.60
2012,10,16,14,14,12.70
2012,10,16,14,15,12.70
2012,10,16,14,16,12.70
2012,10,16,14,17,12.70
2012,10,16,14,18,12.70
2012,10,16,14,19,12.70
2012,10,16,14,20,12.70
2012,10,16,14,21,12.70
2012,10,16,14,22,12.80
2012,10,16,14,23,12.80
2012,10,16,14,24,12.80
2012,10,16,14,25,12.80
2012,10,16,14,26,12.80
2012,10,16,14,27,12.90
2012,10,16,14,28,12.90
2012,10,16,14,29,12.90
2012,10,16,14,30,12.90
2012,10,16,14,31,12.90
2012,10,16,14,32,12.90
2012,10,16,14,33,12.90
2012,10,16,14,34,12.90
2012,10,16,14,35,12.90
2012,10,16,14,36,12.90
2012,10,16,14,37,13.00
2012,10,16,14,38,13.00
2012,10,16,14,39,12.90
2012,10,16,14,40,13.00
2012,10,16,14,41,13.00
2012,10,16,14,42,13.10
2012,10,16,14,43,13.10
2012,10,16,14,44,13.10
2012,10,16,14,45,13.10
2012,10,16,14,46,13.20
2012,10,16,14,47,13.30
2012,10,16,14,48,13.30
2012,10,16,14,49,13.30
2012,10,16,14,50,13.30
2012,10,16,14,51,13.30
2012,10,16,14,52,13.30
2012,10,16,14,53,13.40
2012,10,16,14,54,13.40
2012,10,16,14,55,13.40
2012,10,16,14,56,13.40
2012,10,16,14,57,13.50
2012,10,16,14,58,13.50
2012,10,16,14,59,13.50
2012,10,16,15,00,13.40
2012,10,16,15,01,13.40
2012,10,16,15,02,13.40
2012,10,16,15,03,13.40
2012,10,16,15,04,13.40
2012,10,16,15,05,13.40
2012,10,16,15,06,13.40
2012,10,16,15,07,13.40
2012,10,16,15,08,13.30
2012,10,16,15,09,13.30
2012,10,16,15,10,13.30
2012,10,16,15,11,13.30
2012,10,16,15,12,13.30
2012,10,16,15,13,13.30
2012,10,16,15,14,13.40
2012,10,16,15,15,13.40
2012,10,16,15,16,13.40
2012,10,16,15,17,13.40
2012,10,16,15,18,13.40
2012,10,16,15,19,13.40
2012,10,16,15,20,13.50
2012,10,16,15,21,13.50
2012,10,16,15,22,13.50
2012,10,16,15,23,13.50
2012,10,16,15,24,13.50
2012,10,16,15,25,13.50
2012,10,16,15,26,13.50
2012,10,16,15,27,13.50
2012,10,16,15,28,13.40
2012,10,16,15,29,13.40
2012,10,16,15,30,13.40
2012,10,16,15,31,13.40
2012,10,16,15,32,13.30
2012,10,16,15,33,13.30
2012,10,16,15,34,13.10
2012,10,16,15,35,13.00
2012,10,16,15,36,12.90
2012,10,16,15,37,12.90
2012,10,16,15,38,12.90
2012,10,16,15,39,13.00
2012,10,16,15,40,13.10
2012,10,16,15,41,13.10
2012,10,16,15,42,13.10
2012,10,16,15,43,13.10
2012,10,16,15,44,13.10
2012,10,16,15,45,13.20
2012,10,16,15,46,13.20
2012,10,16,15,47,13.20
2012,10,16,15,48,13.10
2012,10,16,15,49,13.10
2012,10,16,15,50,13.10
2012,10,16,15,51,13.20
2012,10,16,15,52,13.20
2012,10,16,15,53,13.20
2012,10,16,15,54,13.20
2012,10,16,15,55,13.20
2012,10,16,15,56,13.20
2012,10,16,15,57,13.20
2012,10,16,15,58,13.20
2012,10,16,15,59,13.20
2012,10,16,16,00,13.10
2012,10,16,16,01,13.10
2012,10,16,16,02,13.10
2012,10,16,16,03,13.20
2012,10,16,16,04,13.20
2012,10,16,16,05,13.30
2012,10,16,16,06,13.30
2012,10,16,16,07,13.20
2012,10,16,16,08,13.20
2012,10,16,16,09,13.10
2012,10,16,16,10,13.10
2012,10,16,16,11,13.10
2012,10,16,16,12,13.00
2012,10,16,16,13,13.10
2012,10,16,16,14,13.00
2012,10,16,16,15,12.90
2012,10,16,16,16,12.90
2012,10,16,16,17,12.80
2012,10,16,16,18,12.80
2012,10,16,16,19,12.70
2012,10,16,16,20,12.60
2012,10,16,16,21,12.60
2012,10,16,16,22,12.60
2012,10,16,16,23,12.60
2012,10,16,16,24,12.50
2012,10,16,16,25,12.50
2012,10,16,16,26,12.50
2012,10,16,16,27,12.40
2012,10,16,16,28,12.40
2012,10,16,16,29,12.40
2012,10,16,16,30,12.30
2012,10,16,16,31,12.30
2012,10,16,16,32,12.30
2012,10,16,16,33,12.30
2012,10,16,16,34,12.20
2012,10,16,16,35,12.20
2012,10,16,16,36,12.10
2012,10,16,16,37,12.10
2012,10,16,16,38,12.10
2012,10,16,16,39,12.10
2012,10,16,16,40,12.10
2012,10,16,16,41,12.10
2012,10,16,16,42,12.00
2012,10,16,16,43,12.00
2012,10,16,16,44,12.00
2012,10,16,16,45,12.10
2012,10,16,16,46,12.10
2012,10,16,16,47,12.00
2012,10,16,16,48,12.00
2012,10,16,16,49,11.90
2012,10,16,16,50,11.90
2012,10,16,16,51,11.90
2012,10,16,16,52,11.80
2012,10,16,16,53,11.80
2012,10,16,16,54,11.80
2012,10,16,16,55,11.80
2012,10,16,16,56,11.80
2012,10,16,16,57,11.80
2012,10,16,16,58,11.70
2012,10,16,16,59,11.70
2012,10,16,17,00,11.70
2012,10,16,17,01,11.70
2012,10,16,17,02,11.70
2012,10,16,17,03,11.70
2012,10,16,17,04,11.70
2012,10,16,17,05,11.60
2012,10,16,17,06,11.60
2012,10,16,17,07,11.60
2012,10,16,17,08,11.60
2012,10,16,17,09,11.60
2012,10,16,17,10,11.50
2012,10,16,17,11,11.50
2012,10,16,17,12,11.50
2012,10,16,17,13,11.50
2012,10,16,17,14,11.60
2012,10,16,17,15,11.60
2012,10,16,17,16,11.60
2012,10,16,17,17,11.60
2012,10,16,17,18,11.60
2012,10,16,17,19,11.60
2012,10,16,17,20,11.60
2012,10,16,17,21,11.60
2012,10,16,17,22,11.60
2012,10,16,17,23,11.60
2012,10,16,17,24,11.50
2012,10,16,17,25,11.50
2012,10,16,17,26,11.50
2012,10,16,17,27,11.40
2012,10,16,17,28,11.40
2012,10,16,17,29,11.40
2012,10,16,17,30,11.40